Location: Devore Heights
(34.2372°N, 117.4156°W)
Time: 05:07:49
(UTC+00:00)

A-11 Canister half - Pass Details

Date: 22 September 2024
Orbit: 1515 x 1684 km, 47.2° (Epoch: 08 October)

Event Time Altitude Azimuth Distance (km) Brightness Sun altitude
Rises 06:14:11 0° 305° (NW) 4,675 12.1 -49.9°
Reaches altitude 10° 06:17:15 10° 308° (NW) 3,683 11.4 -50.3°
Enters shadow 06:21:29 31° 315° (NW) 2,407 10.2 -50.8°
